[[{"header":{"parameterUnit":"m.s-1","parameterCategory":2,"la1":30.2991,"la2":30.254,"lo1":-89.0895,"lo2":-89.0444,"dy":0.0017,"dx":0.0017,"nx":28,"ny":28,"refTime":"2025-07-23T21:00:00:Z","depth":"0","parameterNumber":2,"parameterNumberName":"U-component_of_CURRENTS"},"data":[0,0,0,0,0,0,0,0,0,0,0,0,0,0,0,0,0,0,0,0,0,0,0,0,0,0,0,0,0,0,0,0,0,0,0,0,0,0,0,0,0,0,0,0,0,0,0,0,0,0,0,0,0,0,0,0,0,0,0.4674,0.4675,0,0.4785,0.4786,0.4786,0.4792,0.4791,0.479,0.4789,0.4805,0.4806,0.4807,0,0,0,0,0,0,0,0,0,0,0,0,0,0.4559,0.456,0.4673,0.4675,0.4677,0.4785,0.4786,0.4787,0.4792,0.4791,0.479,0.4789,0.4805,0.4806,0.4807,0,0,0,0,0,0,0,0,0,0,0,0,0,0.4627,0.456,0.4673,0.4697,0.4701,0.4784,0.4786,0.4787,0.4792,0.4791,0.479,0.4789,0.4804,0.4806,0.4808,0.4842,0,0,0.4813,0.4814,0,0,0,0,0,0,0,0,0.4623,0.4631,0.4692,0.4696,0.47,0.4778,0.4751,0.4803,0.4792,0.4751,0.4789,0.4788,0.4792,0.4795,0.4811,0.4843,0.4843,0.4813,0.4814,0.4815,0.4815,0,0,0,0,0,0,0,0.4618,0.4627,0.4712,0.4694,0.4699,0.4735,0.4741,0.4761,0.4771,0.4755,0.4757,0.4779,0.4792,0.481,0.4812,0.4844,0.4813,0.4815,0.4816,0.4816,0.4979,0.4982,0,0,0,0,0,0,0.4613,0.4622,0.4708,0.4716,0.4664,0.4738,0.4745,0.475,0.4773,0.4777,0.478,0.4779,0.4807,0.481,0.4812,0.4918,0.4815,0.4816,0.4817,0.4976,0.498,0.4984,0,0,0,0,0,0,0.4609,0.4619,0.4704,0.4677,0.4691,0.4741,0.4746,0.4753,0.4774,0.4794,0.4795,0.4796,0.4807,0.481,0.4828,0.4916,0.4817,0.4819,0.4972,0.4977,0.4982,0.5089,0,0,0,0,0,0,0.4605,0.4616,0.4617,0.4676,0.4692,0.4774,0.4748,0.4756,0.4792,0.4792,0.4808,0.4808,0.4806,0.4825,0.483,0.4917,0.482,0.4968,0.4974,0.498,0.5081,0.5097,0.5111,0,0,0,0,0,0.46,0.4618,0.4616,0.4627,0.4691,0.4777,0.4789,0.4816,0.4794,0.4825,0.4814,0.4808,0.487,0.4828,0.4832,0.4922,0.4965,0.4973,0.498,0.5075,0.5094,0.511,0,0,0,0,0,0,0.4566,0.4622,0.4621,0.4651,0.4715,0.478,0.4811,0.4823,0.4842,0.4832,0.4822,0.4823,0.4885,0.4881,0.4835,0.4991,0.4929,0.4937,0.5,0.5018,0.5032,0.5082,0.4822,0,0,0,0,0,0.4559,0.4588,0.465,0.4678,0.4706,0.4754,0.4788,0.4817,0.4846,0.4853,0.4869,0.4888,0.4924,0.4944,0.4973,0.5038,0.5094,0.5109,0.5124,0.5136,0.5182,0.5337,0.537,0.5008,0.5008,0.5008,0,0,0.4559,0.4591,0.4609,0.4675,0.4715,0.4794,0.4771,0.484,0.4916,0.4852,0.4935,0.4932,0.4949,0.503,0.5061,0.5034,0.5266,0.5146,0.5156,0.5196,0.5348,0.5384,0.5416,0.5013,0.5012,0.5011,0,0,0.46,0.4596,0.4646,0.47,0.4779,0.4825,0.4846,0.4923,0.4961,0.5034,0.5017,0.5062,0.511,0.516,0.5182,0.5297,0.5332,0.5309,0.5431,0.558,0.5612,0.5641,0.5744,0.5782,0.5324,0.5324,0.5324,0,0.4598,0.4665,0.4679,0.4748,0.4813,0.4841,0.4934,0.4987,0.5066,0.5132,0.5078,0.5207,0.5193,0.5328,0.5357,0.5338,0.5408,0.5355,0.5602,0.5632,0.5659,0.5759,0.5798,0.533,0.5329,0.5329,0.5328,0,0.469,0.4745,0.4783,0.4879,0.4945,0.5032,0.5112,0.519,0.5226,0.5295,0.5426,0.5412,0.5502,0.5505,0.5454,0.5654,0.5635,0.5595,0.5558,0.5703,0.5797,0.5837,0.5339,0.5336,0.5335,0.5333,0,0,0.4695,0.4827,0.4839,0.4915,0.5027,0.5103,0.5233,0.5392,0.5499,0.5569,0.5724,0.5769,0.5772,0.5798,0.5763,0.5868,0.6079,0.5815,0.582,0.5919,0.6402,0.6196,0.6218,0.6088,0.6096,0.6102,0.6384,0,0.4776,0.4938,0.4977,0.5141,0.5244,0.5311,0.5432,0.5568,0.5665,0.5813,0.5868,0.5973,0.5884,0.5911,0.6018,0.607,0.6192,0.6006,0.6247,0.6255,0.6056,0.6261,0.5882,0.6085,0.6422,0.6429,0.6433,0,0.487,0.497,0.5149,0.5311,0.5355,0.5443,0.5657,0.5766,0.5966,0.6039,0.6177,0.6208,0.6375,0.6245,0.6498,0.6387,0.6422,0.6446,0.6458,0.6265,0.6124,0.5999,0.6144,0.5942,0.6494,0.6489,0.6485,0,0.4931,0.5092,0.5246,0.5303,0.5483,0.5569,0.5658,0.5849,0.5965,0.6185,0.6289,0.6488,0.6569,0.6707,0.6727,0.6658,0.6974,0.6889,0.6752,0.6737,0.6462,0.6408,0.6441,0.71,0.7099,0.7098,0.7097,0,0.5039,0.516,0.5276,0.5368,0.5525,0.5617,0.5796,0.5917,0.61,0.6257,0.6389,0.6525,0.669,0.6848,0.6874,0.694,0.7117,0.6841,0.6828,0.6481,0.6427,0.6271,0.6225,0.7109,0.7106,0.7104,0.7103,0,0.5134,0.5211,0.5377,0.5531,0.5568,0.568,0.5829,0.5962,0.6121,0.6328,0.6403,0.6635,0.6841,0.6965,0.7176,0.7094,0.6974,0.7146,0.6694,0.662,0.6249,0.6222,0.6152,0.5991,0.7098,0.7095,0.7092,0,0.5227,0.5323,0.5464,0.5532,0.5599,0.5736,0.5828,0.5968,0.6089,0.6369,0.6469,0.6719,0.6852,0.7078,0.7006,0.7076,0.6895,0.6727,0.6514,0.6236,0.6203,0.6016,0.5873,0.6207,0.6197,0.619,0.6183,0,0.5397,0.5421,0.5536,0.563,0.5713,0.5808,0.5926,0.6007,0.6181,0.6327,0.6521,0.6644,0.6791,0.6648,0.6667,0.6654,0.6365,0.6564,0.6429,0.5656,0.5315,0.5143,0.6,0.6114,0.6121,0.6126,0.613,0.6132,0.5503,0.5563,0.5648,0.5721,0.5795,0.5834,0.5838,0.5958,0.6066,0.6139,0.638,0.6354,0.6269,0.6225,0.62,0.5801,0.5914,0.5536,0.5582,0.546,0.5121,0.5798,0.578,0.5785,0.5789,0.5793,0.5796,0,0.56,0.5631,0.5726,0.575,0.5751,0.5793,0.5859,0.5788,0.5796,0.5864,0.5925,0.5673,0.5483,0.5395,0.5049,0.481,0.4644,0.4678,0.4344,0.4299,0.5027,0.4793,0.4371,0.4372,0.4372,0.4372,0.4372,0.4373,0.5656,0.5712,0.5696,0.5655,0.565,0.5533,0.5502,0.5418,0.5381,0.5102,0.4844,0.4794,0.4742,0.4588,0.4249,0.4138,0.3875,0.3635,0.3783,0.4276,0.4358,0.4435,0.4201,0.3663,0.3662,0.2764,0.2757,0.2752]},{"header":{"parameterUnit":"m.s-1","parameterCategory":2,"la1":30.2991,"la2":30.254,"lo1":-89.0895,"lo2":-89.0444,"dy":0.0017,"dx":0.0017,"nx":28,"ny":28,"refTime":"2025-07-23T21:00:00:Z","depth":"0","parameterNumber":3,"parameterNumberName":"V-component_of_CURRENTS"},"data":[0,0,0,0,0,0,0,0,0,0,0,0,0,0,0,0,0,0,0,0,0,0,0,0,0,0,0,0,0,0,0,0,0,0,0,0,0,0,0,0,0,0,0,0,0,0,0,0,0,0,0,0,0,0,0,0,0,0,0.0029,0.0029,0,-0.0029,-0.003,-0.0031,-0.0086,-0.0087,-0.0087,-0.0088,-0.0183,-0.0185,-0.0187,0,0,0,0,0,0,0,0,0,0,0,0,0,0.0044,0.0044,0.0029,0.0029,0.0028,-0.0029,-0.003,-0.0031,-0.0086,-0.0087,-0.0087,-0.0088,-0.0183,-0.0185,-0.0188,0,0,0,0,0,0,0,0,0,0,0,0,0,0.0015,0.0045,0.0029,-0.0005,-0.0008,-0.0029,-0.003,-0.0031,-0.0086,-0.0087,-0.0088,-0.0088,-0.0182,-0.0185,-0.0188,-0.0192,0,0,-0.0197,-0.0199,0,0,0,0,0,0,0,0,0.0017,0.0014,0.0001,-0.0002,-0.0006,-0.0049,-0.006,-0.0086,-0.0086,-0.0059,-0.0088,-0.0089,-0.014,-0.0147,-0.0158,-0.0196,-0.0201,-0.0198,-0.02,-0.0201,-0.0202,0,0,0,0,0,0,0,0.0019,0.0016,0.0004,0.0,-0.0004,-0.0033,-0.0038,-0.0065,-0.0097,-0.0061,-0.0065,-0.0068,-0.0143,-0.0155,-0.0161,-0.0202,-0.0198,-0.02,-0.0202,-0.0204,-0.0262,-0.0262,0,0,0,0,0,0,0.0034,0.0019,0.0006,0.0002,0.0006,-0.0033,-0.0038,-0.0036,-0.0096,-0.0105,-0.0067,-0.007,-0.015,-0.0157,-0.0165,-0.0153,-0.0201,-0.0204,-0.0206,-0.0263,-0.0262,-0.0262,0,0,0,0,0,0,0.0035,0.0034,0.0008,0.001,0.0005,-0.0032,-0.003,-0.0037,-0.0047,-0.0099,-0.011,-0.0068,-0.015,-0.016,-0.0177,-0.0158,-0.0205,-0.0208,-0.0263,-0.0262,-0.0262,-0.0141,0,0,0,0,0,0,0.0036,0.0035,0.004,0.0012,0.0006,0.001,-0.0029,-0.0038,-0.0046,-0.0051,-0.0103,-0.0113,-0.0152,-0.0172,-0.018,-0.0163,-0.0211,-0.0263,-0.0263,-0.0262,-0.0146,-0.0137,-0.0129,0,0,0,0,0,0.0036,0.0059,0.0041,0.0039,0.0016,0.0012,0.0006,-0.0025,-0.0045,-0.0039,-0.0075,-0.0112,-0.0175,-0.0174,-0.0184,-0.0166,-0.0264,-0.0263,-0.0262,-0.0149,-0.0139,-0.0129,0,0,0,0,0,0,0.0072,0.0055,0.0034,0.005,0.0035,0.0003,0.0009,-0.0016,-0.004,-0.0045,-0.01,-0.0111,-0.0124,-0.0163,-0.016,-0.0186,-0.0229,-0.023,-0.014,-0.013,-0.0122,-0.0094,-0.0213,0,0,0,0,0,0.0082,0.0092,0.0067,0.008,0.0077,0.0043,0.0036,0.0016,-0.0009,-0.0021,-0.0059,-0.0101,-0.0129,-0.0142,-0.0179,-0.0182,-0.0186,-0.0183,-0.0174,-0.0167,-0.0153,-0.0146,-0.0135,-0.026,-0.026,-0.026,0,0,0.0098,0.0091,0.0095,0.0087,0.0073,0.0088,0.0037,0.0039,0.0048,-0.0027,-0.0026,-0.0073,-0.0126,-0.0133,-0.0143,-0.0161,-0.0127,-0.0166,-0.0159,-0.0149,-0.0144,-0.0131,-0.012,-0.0259,-0.0259,-0.0259,0,0,0.0146,0.0132,0.0157,0.0156,0.0144,0.0125,0.0131,0.0103,0.0087,0.0079,0.0027,0.0001,-0.0048,-0.0073,-0.0094,-0.0062,-0.0087,-0.0086,-0.0013,-0.0006,0.0005,0.0015,0.0064,0.0077,-0.0077,-0.0076,-0.0076,0,0.0164,0.0189,0.0164,0.0194,0.0197,0.0151,0.0179,0.0167,0.0134,0.0126,0.0093,0.0028,-0.0016,-0.0016,-0.0007,-0.0039,-0.0029,-0.0039,0.0009,0.0018,0.0026,0.0074,0.0087,-0.0071,-0.0071,-0.0072,-0.0072,0,0.0234,0.0251,0.0271,0.0288,0.0292,0.0308,0.0289,0.0285,0.0252,0.0227,0.0207,0.0147,0.0107,0.0088,0.0053,0.0082,0.0077,0.0021,-0.0004,0.0047,0.0093,0.0104,-0.0062,-0.0064,-0.0066,-0.0067,0,0,0.0272,0.031,0.0315,0.0332,0.0339,0.0348,0.0373,0.037,0.0384,0.0339,0.0351,0.0298,0.0251,0.0224,0.0171,0.0179,0.0255,0.0135,0.0133,0.0206,0.0311,0.0296,0.0307,0.021,0.0211,0.0213,0.0336,0,0.0325,0.0389,0.0397,0.0452,0.0473,0.0456,0.0485,0.0479,0.0452,0.0454,0.0395,0.0382,0.0307,0.0293,0.0289,0.0257,0.0284,0.0229,0.023,0.0231,0.0229,0.0318,0.0303,0.0409,0.0347,0.0349,0.035,0,0.0376,0.0412,0.0471,0.0514,0.0526,0.056,0.0579,0.0602,0.0597,0.0577,0.055,0.0498,0.0503,0.0422,0.0426,0.0396,0.0371,0.0348,0.035,0.03,0.0236,0.0335,0.0431,0.0197,0.0367,0.0365,0.0364,0,0.0382,0.0454,0.0497,0.0516,0.0568,0.0595,0.0624,0.0632,0.0666,0.0662,0.0684,0.0643,0.0657,0.0602,0.0555,0.0496,0.0575,0.0477,0.045,0.045,0.0418,0.0411,0.0302,0.0492,0.0492,0.0491,0.0491,0,0.0412,0.045,0.0508,0.0536,0.0608,0.0629,0.0699,0.0714,0.0754,0.0832,0.0754,0.0827,0.0704,0.0719,0.0632,0.0611,0.064,0.0499,0.0484,0.0461,0.0457,0.0232,0.0094,0.0496,0.0495,0.0494,0.0493,0,0.041,0.044,0.0504,0.0579,0.061,0.0663,0.0772,0.0833,0.0857,0.0959,0.0975,0.1,0.1053,0.0944,0.0903,0.0746,0.0576,0.0676,0.0682,0.0662,0.0355,0.0225,0.0122,0.0029,0.065,0.065,0.065,0,0.0417,0.0447,0.0542,0.0599,0.0642,0.0731,0.0811,0.0872,0.0956,0.1099,0.1175,0.1251,0.1385,0.1316,0.1072,0.094,0.0691,0.0743,0.0595,0.037,0.0213,0.0102,0.0022,0.0626,0.0626,0.0626,0.0626,0,0.0452,0.0478,0.0537,0.0648,0.074,0.0858,0.0981,0.1067,0.1179,0.1325,0.1565,0.1702,0.1645,0.1541,0.1275,0.1112,0.0542,0.0737,0.0495,0.019,0.0073,-0.0034,0.0535,0.0627,0.0627,0.0627,0.0627,0.0627,0.0487,0.053,0.0608,0.072,0.0833,0.0993,0.112,0.1304,0.1522,0.1822,0.1902,0.2231,0.189,0.1577,0.128,0.0612,0.062,0.0373,0.0248,0.0168,0.0018,0.061,0.0667,0.0667,0.0667,0.0667,0.0667,0,0.0534,0.0586,0.069,0.0829,0.0974,0.1024,0.1249,0.1442,0.1777,0.2142,0.2439,0.2507,0.2081,0.1543,0.0648,0.0186,-0.0015,-0.0085,-0.0275,-0.0324,0.0207,0.0139,0.0093,0.0093,0.0094,0.0094,0.0094,0.0094,0.0566,0.0653,0.0709,0.0936,0.1049,0.1278,0.1427,0.1759,0.2082,0.26,0.2889,0.3077,0.2579,0.0955,-0.0109,-0.034,-0.0707,-0.076,-0.0911,-0.0609,-0.0578,-0.0548,-0.0647,-0.0856,-0.0858,-0.1405,-0.141,-0.1415]}],[{"header":{"parameterUnit":"m.s-1","parameterCategory":2,"la1":30.2991,"la2":30.254,"lo1":-89.0895,"lo2":-89.0444,"dy":0.0017,"dx":0.0017,"nx":28,"ny":28,"refTime":"2025-07-23T21:00:00:Z","depth":"2","parameterNumber":2,"parameterNumberName":"U-component_of_CURRENTS"},"data":[0,0,0,0,0,0,0,0,0,0,0,0,0,0,0,0,0,0,0,0,0,0,0,0,0,0,0,0,0,0,0,0,0,0,0,0,0,0,0,0,0,0,0,0,0,0,0,0,0,0,0,0,0,0,0,0,0,0,0.3198,0.3199,0,0.3275,0.3275,0.3276,0.3321,0.3321,0.3322,0.3322,0.3334,0.3334,0.3334,0,0,0,0,0,0,0,0,0,0,0,0,0,0.3105,0.3106,0.3198,0.3199,0.32,0.3275,0.3275,0.3276,0.3321,0.3321,0.3322,0.3323,0.3334,0.3334,0.3334,0,0,0,0,0,0,0,0,0,0,0,0,0,0.3157,0.3106,0.3197,0.3234,0.3238,0.3274,0.3275,0.3276,0.3321,0.3321,0.3322,0.3323,0.3334,0.3334,0.3334,0.3317,0,0,0.3333,0.3333,0,0,0,0,0,0,0,0,0.3154,0.3159,0.3227,0.3232,0.3237,0.3292,0.3247,0.3288,0.3321,0.3286,0.3322,0.3323,0.3316,0.3317,0.3326,0.3318,0.3318,0.3333,0.3333,0.3333,0.3333,0,0,0,0,0,0,0,0.315,0.3157,0.3225,0.3229,0.3234,0.3252,0.326,0.3255,0.3292,0.3289,0.3293,0.3307,0.3317,0.3326,0.3326,0.3319,0.3333,0.3333,0.3333,0.3333,0.3319,0.3318,0,0,0,0,0,0,0.3146,0.3153,0.3222,0.3227,0.32,0.3253,0.3262,0.3271,0.3293,0.3299,0.3306,0.3309,0.3326,0.3327,0.3327,0.3425,0.3333,0.3333,0.3332,0.3319,0.3319,0.3318,0,0,0,0,0,0,0.3143,0.3151,0.3219,0.3195,0.3205,0.3255,0.3264,0.3272,0.3308,0.3308,0.3312,0.3338,0.3327,0.3327,0.3365,0.3421,0.3333,0.3332,0.3319,0.3319,0.3319,0.3546,0,0,0,0,0,0,0.314,0.3149,0.3152,0.3194,0.3207,0.3251,0.3264,0.3273,0.3315,0.332,0.3335,0.3336,0.3327,0.3366,0.3365,0.3419,0.3332,0.3319,0.3319,0.3319,0.3538,0.3553,0.3566,0,0,0,0,0,0.3136,0.3144,0.3152,0.3161,0.321,0.3252,0.326,0.3294,0.3316,0.333,0.3362,0.3337,0.336,0.3367,0.3366,0.3421,0.332,0.3319,0.3319,0.3532,0.355,0.3565,0,0,0,0,0,0,0.3107,0.3151,0.316,0.3181,0.3216,0.3261,0.3285,0.3309,0.3345,0.3361,0.3361,0.3364,0.341,0.3362,0.337,0.34,0.3324,0.3323,0.3486,0.3502,0.3516,0.3517,0.3332,0,0,0,0,0,0.31,0.3122,0.3161,0.3181,0.3202,0.3247,0.3271,0.3299,0.3338,0.3357,0.3373,0.3377,0.3398,0.3413,0.3403,0.3438,0.3425,0.3452,0.3466,0.3479,0.347,0.3567,0.3593,0.3317,0.3317,0.3317,0,0,0.31,0.3125,0.3139,0.3177,0.3213,0.3247,0.3264,0.3315,0.3383,0.3349,0.3439,0.3429,0.3413,0.3464,0.3475,0.3443,0.3542,0.3478,0.3491,0.3474,0.357,0.3598,0.3623,0.3316,0.3316,0.3316,0,0,0.3117,0.3131,0.3159,0.3193,0.3249,0.3264,0.3284,0.3342,0.3414,0.3473,0.3487,0.3537,0.352,0.3575,0.3586,0.3658,0.361,0.3606,0.3699,0.3797,0.3823,0.3846,0.3852,0.3874,0.362,0.3621,0.3621,0,0.3117,0.3142,0.3173,0.3216,0.3239,0.3276,0.3308,0.3396,0.3465,0.3525,0.3513,0.3556,0.3592,0.3684,0.3727,0.3707,0.3693,0.3666,0.3827,0.3849,0.3868,0.3869,0.389,0.3631,0.363,0.3629,0.3628,0,0.3158,0.3181,0.3207,0.3257,0.3285,0.332,0.3418,0.3481,0.3535,0.3602,0.3698,0.3743,0.3772,0.379,0.3801,0.3934,0.3855,0.3847,0.3814,0.3912,0.3903,0.3921,0.3647,0.3643,0.364,0.3637,0,0,0.3154,0.3215,0.3224,0.3246,0.3304,0.3332,0.3452,0.3548,0.3645,0.3716,0.384,0.3922,0.3941,0.3952,0.3975,0.4062,0.4244,0.4016,0.4016,0.4069,0.4381,0.4297,0.4306,0.4267,0.4271,0.4275,0.4318,0,0.317,0.3219,0.3247,0.3294,0.3322,0.3382,0.3482,0.3592,0.3692,0.3834,0.3942,0.4043,0.4015,0.4054,0.4154,0.4215,0.4299,0.4227,0.4231,0.423,0.4188,0.433,0.3958,0.3962,0.4335,0.4338,0.434,0,0.3176,0.3221,0.3249,0.3309,0.3329,0.3367,0.3484,0.3587,0.3803,0.3895,0.4006,0.4096,0.4264,0.4238,0.4384,0.4325,0.4375,0.44,0.4403,0.4254,0.4182,0.3919,0.398,0.4369,0.4366,0.4364,0.4362,0,0.3121,0.3196,0.3202,0.3231,0.3326,0.3376,0.3426,0.3596,0.3736,0.3953,0.4041,0.4208,0.4314,0.4405,0.4527,0.4457,0.4673,0.4593,0.4538,0.4527,0.4173,0.4126,0.4718,0.4718,0.4718,0.4718,0.4718,0,0.309,0.3122,0.3189,0.3217,0.3281,0.3349,0.3456,0.3556,0.3765,0.3918,0.4073,0.4215,0.4366,0.453,0.4585,0.4636,0.4736,0.4571,0.4566,0.4233,0.4193,0.4501,0.4476,0.4719,0.4719,0.4719,0.4719,0,0.3041,0.3073,0.3132,0.3231,0.3254,0.3321,0.3475,0.3599,0.3733,0.3944,0.4028,0.4274,0.4419,0.4562,0.4735,0.4692,0.4774,0.4778,0.4344,0.4287,0.4511,0.4496,0.4636,0.4634,0.4633,0.4631,0.463,0,0.3002,0.3021,0.3121,0.3197,0.3255,0.3352,0.3441,0.3587,0.3703,0.3968,0.407,0.4305,0.4431,0.462,0.4621,0.4665,0.4801,0.4342,0.4165,0.4539,0.4519,0.4506,0.4493,0.3755,0.3747,0.374,0.3735,0,0.3024,0.3064,0.3122,0.3191,0.3298,0.3404,0.3508,0.3565,0.3736,0.3875,0.4045,0.4176,0.4333,0.422,0.4309,0.4289,0.4294,0.4202,0.4771,0.3854,0.3719,0.3696,0.371,0.3675,0.3681,0.3686,0.3689,0.3691,0.3037,0.3067,0.3112,0.3181,0.3311,0.3374,0.3365,0.3467,0.355,0.3622,0.3854,0.3873,0.3941,0.3836,0.3771,0.3707,0.3964,0.377,0.3786,0.381,0.3722,0.3595,0.3505,0.3509,0.3513,0.3517,0.352,0,0.2987,0.3017,0.3104,0.3137,0.3221,0.3333,0.3356,0.3233,0.319,0.3381,0.3442,0.3195,0.3137,0.3236,0.3012,0.3003,0.2919,0.2902,0.2755,0.2819,0.2875,0.2734,0.2256,0.2252,0.2248,0.2245,0,0,0.2975,0.2955,0.296,0.3008,0.3083,0.3035,0.3009,0.2858,0.2823,0.2724,0.277,0.2988,0.3131,0.2649,0.2589,0.2387,0.2575,0.2291,0.3311,0.3204,0.3254,0.3394,0.3253,0,0,0,0,0]},{"header":{"parameterUnit":"m.s-1","parameterCategory":2,"la1":30.2991,"la2":30.254,"lo1":-89.0895,"lo2":-89.0444,"dy":0.0017,"dx":0.0017,"nx":28,"ny":28,"refTime":"2025-07-23T21:00:00:Z","depth":"2","parameterNumber":3,"parameterNumberName":"V-component_of_CURRENTS"},"data":[0,0,0,0,0,0,0,0,0,0,0,0,0,0,0,0,0,0,0,0,0,0,0,0,0,0,0,0,0,0,0,0,0,0,0,0,0,0,0,0,0,0,0,0,0,0,0,0,0,0,0,0,0,0,0,0,0,0,0.026,0.026,0,0.023,0.0229,0.0229,0.0177,0.0177,0.0176,0.0175,0.0107,0.0106,0.0105,0,0,0,0,0,0,0,0,0,0,0,0,0,0.0239,0.024,0.026,0.026,0.026,0.023,0.0229,0.0228,0.0178,0.0177,0.0176,0.0175,0.0108,0.0106,0.0105,0,0,0,0,0,0,0,0,0,0,0,0,0,0.023,0.024,0.026,0.0233,0.023,0.023,0.0229,0.0228,0.0178,0.0177,0.0176,0.0175,0.0108,0.0106,0.0105,0.0115,0,0,0.0099,0.0099,0,0,0,0,0,0,0,0,0.0231,0.0231,0.0237,0.0235,0.0232,0.0209,0.0197,0.019,0.0178,0.0195,0.0175,0.0174,0.014,0.0136,0.0129,0.0112,0.0109,0.0099,0.0098,0.0097,0.0097,0,0,0,0,0,0,0,0.0232,0.0232,0.0246,0.0237,0.0234,0.021,0.0208,0.0195,0.0171,0.0193,0.019,0.0191,0.0138,0.0131,0.0127,0.0108,0.0099,0.0098,0.0097,0.0096,0.008,0.0081,0,0,0,0,0,0,0.0244,0.0233,0.0247,0.0245,0.0232,0.0212,0.0209,0.0215,0.0172,0.0166,0.0192,0.0189,0.0134,0.0129,0.0125,0.0128,0.0097,0.0096,0.0095,0.008,0.008,0.0081,0,0,0,0,0,0,0.0243,0.0246,0.0248,0.0239,0.0238,0.0214,0.0221,0.0215,0.0207,0.0172,0.0164,0.019,0.0133,0.0127,0.0104,0.0126,0.0095,0.0093,0.0079,0.008,0.0081,0.014,0,0,0,0,0,0,0.0243,0.0246,0.0254,0.0241,0.0239,0.0256,0.0222,0.0215,0.0211,0.0206,0.0168,0.016,0.0132,0.0107,0.0102,0.0123,0.0092,0.0078,0.0079,0.008,0.0138,0.0143,0.0148,0,0,0,0,0,0.0243,0.0264,0.0255,0.0257,0.0252,0.0257,0.0254,0.023,0.0212,0.0217,0.0179,0.0162,0.0111,0.0106,0.01,0.0121,0.0077,0.0079,0.008,0.0135,0.0142,0.0148,0,0,0,0,0,0,0.026,0.0261,0.025,0.027,0.0267,0.0249,0.0253,0.0238,0.0214,0.0207,0.0164,0.0154,0.0142,0.0124,0.0119,0.0119,0.0095,0.0095,0.0138,0.0145,0.015,0.0184,0.0091,0,0,0,0,0,0.0269,0.0283,0.0278,0.0293,0.0294,0.0274,0.0272,0.0261,0.024,0.0228,0.0198,0.0169,0.0147,0.0138,0.0115,0.0117,0.0095,0.0129,0.0134,0.0138,0.0163,0.014,0.0145,0.0085,0.0085,0.0085,0,0,0.0278,0.0282,0.0288,0.0297,0.0289,0.031,0.027,0.0278,0.0293,0.0226,0.0227,0.0184,0.0149,0.0143,0.0139,0.013,0.0139,0.014,0.0144,0.0167,0.0142,0.0148,0.0153,0.0086,0.0086,0.0086,0,0,0.0314,0.0309,0.0335,0.0341,0.0345,0.0337,0.0344,0.0331,0.0321,0.0317,0.0269,0.0238,0.021,0.0187,0.0173,0.0197,0.0163,0.0191,0.0252,0.0228,0.0233,0.0238,0.0198,0.0198,0.0199,0.02,0.02,0,0.0322,0.0363,0.0343,0.0374,0.0392,0.0356,0.0396,0.0384,0.0364,0.037,0.0327,0.0282,0.0236,0.024,0.0236,0.0211,0.0187,0.0229,0.0236,0.024,0.0243,0.0201,0.0201,0.0203,0.0202,0.0202,0.0202,0,0.0385,0.0415,0.0432,0.0462,0.0474,0.0503,0.0494,0.0501,0.0477,0.0463,0.0452,0.0377,0.0357,0.0329,0.0285,0.0294,0.0263,0.024,0.0222,0.0253,0.0206,0.0205,0.0207,0.0206,0.0205,0.0204,0,0,0.041,0.0467,0.0473,0.0517,0.053,0.0558,0.0583,0.0609,0.065,0.0588,0.0629,0.0542,0.0495,0.0475,0.0411,0.038,0.0351,0.0324,0.0322,0.029,0.029,0.0252,0.0245,0.0328,0.0329,0.0329,0.0241,0,0.0467,0.0561,0.0565,0.0651,0.0705,0.0693,0.0734,0.0748,0.0737,0.0763,0.0678,0.0681,0.0554,0.055,0.049,0.0402,0.0354,0.0377,0.0263,0.026,0.0226,0.0245,0.0254,0.0177,0.0239,0.0239,0.0239,0,0.0535,0.0595,0.0694,0.0787,0.0808,0.0849,0.0929,0.0964,0.0974,0.0969,0.0931,0.0863,0.0799,0.0696,0.0536,0.0557,0.043,0.0343,0.0337,0.0288,0.022,0.016,0.0171,0.0236,0.0236,0.0236,0.0236,0,0.0599,0.069,0.0781,0.0809,0.0894,0.0943,0.0992,0.1029,0.1097,0.111,0.1153,0.1037,0.1014,0.0839,0.0619,0.0586,0.0453,0.0385,0.0226,0.0221,0.0202,0.0195,0.0281,0.0281,0.0281,0.0282,0.0282,0,0.0679,0.0754,0.0824,0.0881,0.1012,0.1036,0.1169,0.1204,0.1278,0.1383,0.1266,0.1307,0.1052,0.093,0.0698,0.0463,0.0503,0.0249,0.0206,0.022,0.0216,0.0251,0.0249,0.0278,0.0279,0.028,0.028,0,0.0754,0.0789,0.0907,0.1008,0.105,0.1152,0.1304,0.1413,0.1454,0.159,0.1607,0.1526,0.1355,0.1083,0.0819,0.0592,0.0363,0.0268,0.0292,0.0252,0.0117,0.0119,0.0076,0.0074,0.0073,0.0071,0.007,0,0.0805,0.0876,0.1006,0.1089,0.1143,0.1288,0.141,0.1502,0.1625,0.1722,0.1808,0.169,0.1604,0.1193,0.0791,0.0398,0.0358,0.0167,0.0096,0.014,0.0101,0.0105,0.0109,0.0079,0.0078,0.0077,0.0077,0,0.0913,0.0949,0.1045,0.1222,0.1355,0.1521,0.1691,0.1814,0.1936,0.2018,0.2095,0.2029,0.1637,0.1229,0.0714,0.0446,0.0224,0.0137,0.0204,0.0134,0.0137,0.0101,0.0105,0.007,0.007,0.0071,0.0071,0.0072,0.0989,0.1074,0.1197,0.1366,0.1527,0.1738,0.1894,0.205,0.223,0.2339,0.227,0.2142,0.1722,0.1011,0.0593,0.0155,0.0161,-0.0007,-0.0002,0.0003,0.0024,0.0024,-0.0062,-0.0062,-0.0062,-0.0062,-0.0062,0,0.1079,0.1177,0.1341,0.1549,0.1737,0.1805,0.2075,0.2189,0.2376,0.2417,0.2405,0.1943,0.1506,0.1038,0.0373,-0.0014,-0.0042,-0.0127,-0.0077,-0.0068,-0.0061,-0.0042,-0.0146,-0.0147,-0.0148,-0.0149,0,0,0.1135,0.1293,0.1374,0.168,0.183,0.2073,0.2223,0.2363,0.2429,0.2413,0.2312,0.2149,0.1597,0.1105,0.0588,0.0223,0.0168,0.0148,0.0252,0.0379,0.0392,0.0037,0.008,0,0,0,0,0]}],[{"header":{"parameterUnit":"m.s-1","parameterCategory":2,"la1":30.2991,"la2":30.254,"lo1":-89.0895,"lo2":-89.0444,"dy":0.0017,"dx":0.0017,"nx":28,"ny":28,"refTime":"2025-07-23T21:00:00:Z","depth":"4","parameterNumber":2,"parameterNumberName":"U-component_of_CURRENTS"},"data":[0,0,0,0,0,0,0,0,0,0,0,0,0,0,0,0,0,0,0,0,0,0,0,0,0,0,0,0,0,0,0,0,0,0,0,0,0,0,0,0,0,0,0,0,0,0,0,0,0,0,0,0,0,0,0,0,0,0,0.1738,0.1738,0,0.1792,0.1793,0.1794,0.1851,0.1852,0.1852,0.1853,0.1888,0.1889,0.1889,0,0,0,0,0,0,0,0,0,0,0,0,0,0.1711,0.1711,0.1738,0.1738,0.1739,0.1792,0.1793,0.1794,0.1851,0.1852,0.1853,0.1853,0.1888,0.1889,0.1889,0,0,0,0,0,0,0,0,0,0,0,0,0,0.1741,0.1711,0.1738,0.1773,0.1776,0.1792,0.1793,0.1794,0.1851,0.1852,0.1853,0.1854,0.1888,0.1889,0.1889,0.1872,0,0,0.189,0.1891,0,0,0,0,0,0,0,0,0.174,0.1742,0.1767,0.177,0.1774,0.1815,0.1797,0.1819,0.1851,0.1824,0.1853,0.1854,0.186,0.1863,0.1873,0.1874,0.1875,0.1891,0.1891,0.1891,0.1891,0,0,0,0,0,0,0,0.1737,0.1741,0.1761,0.1767,0.1772,0.1795,0.1801,0.1802,0.1837,0.1826,0.183,0.1834,0.1862,0.1873,0.1875,0.1876,0.1891,0.1891,0.1891,0.1891,0.1948,0.1949,0,0,0,0,0,0,0.1725,0.1738,0.1759,0.1762,0.1757,0.1795,0.1801,0.1802,0.1837,0.1843,0.1833,0.1836,0.1872,0.1874,0.1876,0.1968,0.1891,0.1891,0.1892,0.1946,0.1948,0.1949,0,0,0,0,0,0,0.1724,0.1726,0.1757,0.1751,0.1756,0.1794,0.1795,0.1802,0.1847,0.1842,0.1848,0.1873,0.1872,0.1875,0.1913,0.1966,0.1892,0.1892,0.1945,0.1947,0.1949,0.2082,0,0,0,0,0,0,0.1723,0.1725,0.175,0.175,0.1756,0.178,0.1794,0.1803,0.1844,0.185,0.1877,0.188,0.1873,0.1912,0.1913,0.1965,0.1893,0.1944,0.1946,0.1948,0.2076,0.2088,0.2098,0,0,0,0,0,0.1722,0.1733,0.175,0.1754,0.1779,0.178,0.1786,0.1817,0.1846,0.1863,0.1894,0.1881,0.1927,0.1914,0.1915,0.1968,0.1942,0.1945,0.1948,0.2071,0.2086,0.2098,0,0,0,0,0,0,0.1728,0.174,0.1759,0.1774,0.1786,0.179,0.1816,0.1836,0.1876,0.1903,0.1899,0.1904,0.1961,0.1933,0.1919,0.1986,0.1931,0.1934,0.2024,0.2038,0.2049,0.2035,0.1893,0,0,0,0,0,0.1741,0.1761,0.1766,0.1783,0.1792,0.1814,0.1831,0.1855,0.1875,0.1897,0.192,0.1941,0.1965,0.1978,0.1991,0.2022,0.2018,0.2052,0.2064,0.2074,0.206,0.2114,0.213,0.1958,0.1958,0.1958,0,0,0.1748,0.1759,0.1772,0.1788,0.1806,0.1816,0.1828,0.1863,0.1884,0.1892,0.1951,0.1989,0.1983,0.2035,0.2055,0.2023,0.2125,0.2077,0.2086,0.2067,0.2119,0.2136,0.2151,0.196,0.196,0.1959,0,0,0.1753,0.1782,0.1799,0.181,0.1843,0.1851,0.1867,0.19,0.1931,0.1976,0.2007,0.2071,0.2089,0.2115,0.2121,0.2189,0.219,0.2205,0.2249,0.2304,0.2319,0.2332,0.2376,0.2392,0.2204,0.2204,0.2204,0,0.1774,0.1776,0.1803,0.1816,0.1829,0.1866,0.1879,0.1906,0.1956,0.1993,0.2004,0.2109,0.2118,0.2187,0.2222,0.2218,0.225,0.2209,0.2322,0.2334,0.2345,0.2387,0.2403,0.2211,0.221,0.2209,0.2209,0,0.1766,0.179,0.1797,0.1825,0.185,0.1865,0.1897,0.195,0.1999,0.2035,0.2137,0.2179,0.2242,0.2267,0.2265,0.2365,0.2366,0.2343,0.2296,0.2371,0.241,0.2424,0.2221,0.2218,0.2216,0.2215,0,0,0.1749,0.1786,0.1794,0.1812,0.1857,0.187,0.1923,0.1971,0.2033,0.2105,0.2181,0.2259,0.2331,0.2341,0.2386,0.2431,0.2556,0.2433,0.2433,0.249,0.2695,0.2525,0.2523,0.258,0.2582,0.2584,0.2701,0,0.1735,0.1751,0.1782,0.1812,0.1817,0.188,0.1922,0.1993,0.2066,0.2153,0.2229,0.2323,0.2343,0.2422,0.2476,0.2541,0.2595,0.2526,0.2598,0.2599,0.245,0.2533,0.2592,0.2711,0.2714,0.2717,0.2718,0,0.1699,0.1722,0.1739,0.1805,0.182,0.1862,0.1965,0.2014,0.2138,0.221,0.2333,0.2401,0.252,0.2509,0.2657,0.2628,0.2671,0.2699,0.2704,0.2497,0.2453,0.2609,0.2743,0.2741,0.2739,0.2738,0.2736,0,0.1631,0.1686,0.1701,0.1716,0.1799,0.1856,0.1923,0.2048,0.2123,0.2277,0.237,0.2497,0.2603,0.267,0.2756,0.2731,0.2888,0.2849,0.2731,0.2721,0.2782,0.2766,0.2931,0.2931,0.2931,0.293,0.293,0,0.1558,0.1574,0.1685,0.1689,0.1755,0.1841,0.1949,0.2037,0.2194,0.2295,0.2423,0.2529,0.2656,0.2759,0.2795,0.2815,0.2931,0.2744,0.2739,0.2837,0.2826,0.2794,0.2776,0.2935,0.2934,0.2933,0.2932,0,0.1445,0.1504,0.1537,0.1661,0.1715,0.1771,0.1962,0.2033,0.2211,0.2353,0.2416,0.2598,0.2724,0.282,0.2936,0.2863,0.2889,0.2866,0.2986,0.2985,0.2674,0.2662,0.2724,0.2719,0.2715,0.2711,0.2708,0,0.1374,0.1382,0.1517,0.1557,0.1619,0.1742,0.1819,0.2016,0.2111,0.2378,0.2425,0.2617,0.2717,0.2756,0.2847,0.2888,0.2855,0.2842,0.272,0.2664,0.2654,0.2649,0.2643,0.2701,0.27,0.2699,0.2698,0,0.1259,0.1323,0.1369,0.1456,0.1545,0.163,0.1778,0.1846,0.2072,0.2263,0.2399,0.247,0.2598,0.266,0.272,0.2738,0.2824,0.2796,0.2803,0.2688,0.2638,0.263,0.2629,0.2683,0.2685,0.2687,0.2687,0,0.1205,0.1208,0.1286,0.1356,0.1445,0.1486,0.1584,0.1723,0.1853,0.2166,0.2208,0.2408,0.2587,0.2587,0.2642,0.2644,0.2586,0.248,0.2502,0.252,0.2392,0.2294,0.2235,0,0,0,0,0,0.1141,0.1135,0.1181,0.1235,0.1307,0.1368,0.1535,0.1645,0.1894,0.1939,0.2081,0.2195,0.2286,0.2383,0.234,0.2508,0.2565,0.2442,0.2446,0.2601,0.2618,0.2482,0,0,0,0,0,0,0.1103,0.1125,0.1139,0.1122,0.1141,0.1205,0.1308,0.1465,0.1525,0.1787,0.1856,0.2051,0.217,0.2294,0.2296,0.2323,0.2275,0.2576,0.257,0.2591,0.2607,0.262,0.2487,0,0,0,0,0]},{"header":{"parameterUnit":"m.s-1","parameterCategory":2,"la1":30.2991,"la2":30.254,"lo1":-89.0895,"lo2":-89.0444,"dy":0.0017,"dx":0.0017,"nx":28,"ny":28,"refTime":"2025-07-23T21:00:00:Z","depth":"4","parameterNumber":3,"parameterNumberName":"V-component_of_CURRENTS"},"data":[0,0,0,0,0,0,0,0,0,0,0,0,0,0,0,0,0,0,0,0,0,0,0,0,0,0,0,0,0,0,0,0,0,0,0,0,0,0,0,0,0,0,0,0,0,0,0,0,0,0,0,0,0,0,0,0,0,0,0.0243,0.0243,0,0.0229,0.0229,0.0228,0.0211,0.0211,0.0211,0.0211,0.018,0.0179,0.0179,0,0,0,0,0,0,0,0,0,0,0,0,0,0.0215,0.0216,0.0243,0.0243,0.0243,0.0229,0.0229,0.0228,0.0211,0.0211,0.0211,0.0211,0.018,0.0179,0.0179,0,0,0,0,0,0,0,0,0,0,0,0,0,0.0215,0.0216,0.0243,0.0234,0.0233,0.0229,0.0229,0.0228,0.0211,0.0211,0.0211,0.0211,0.0181,0.0179,0.0178,0.0174,0,0,0.0175,0.0175,0,0,0,0,0,0,0,0,0.0215,0.0216,0.0235,0.0235,0.0234,0.0223,0.0208,0.021,0.0211,0.0218,0.0211,0.0211,0.0194,0.0192,0.0187,0.0173,0.0172,0.0175,0.0174,0.0174,0.0173,0,0,0,0,0,0,0,0.0215,0.0216,0.0235,0.0235,0.0235,0.0218,0.0218,0.0208,0.0205,0.0217,0.0216,0.0218,0.0193,0.0188,0.0186,0.0171,0.0175,0.0174,0.0173,0.0173,0.0153,0.0153,0,0,0,0,0,0,0.0224,0.0217,0.0236,0.0235,0.0226,0.0219,0.0218,0.0225,0.0205,0.0203,0.0218,0.0217,0.019,0.0188,0.0185,0.0192,0.0174,0.0173,0.0172,0.0153,0.0153,0.0153,0,0,0,0,0,0,0.0223,0.0226,0.0236,0.0227,0.0227,0.022,0.0227,0.0225,0.0227,0.0207,0.0204,0.0223,0.019,0.0187,0.0181,0.019,0.0172,0.0171,0.0153,0.0153,0.0153,0.0198,0,0,0,0,0,0,0.0222,0.0226,0.0235,0.0228,0.0228,0.0242,0.0228,0.0225,0.0229,0.0228,0.021,0.0207,0.019,0.0182,0.0179,0.0189,0.017,0.0153,0.0153,0.0153,0.0196,0.02,0.0203,0,0,0,0,0,0.0222,0.0236,0.0235,0.0238,0.0241,0.0243,0.0242,0.0234,0.023,0.0234,0.0219,0.0208,0.0182,0.0182,0.0178,0.0187,0.0153,0.0153,0.0153,0.0195,0.0199,0.0203,0,0,0,0,0,0,0.0228,0.0236,0.0234,0.0251,0.0251,0.0241,0.0246,0.0241,0.0233,0.0235,0.0211,0.0206,0.0202,0.0189,0.0189,0.0181,0.0165,0.0165,0.0198,0.0201,0.0205,0.0219,0.0169,0,0,0,0,0,0.0235,0.0248,0.0249,0.0262,0.0265,0.0257,0.0258,0.0256,0.0248,0.0245,0.023,0.0214,0.0199,0.0197,0.018,0.0181,0.0147,0.0183,0.0187,0.0189,0.0198,0.0142,0.0141,0.0154,0.0154,0.0154,0,0,0.0241,0.0247,0.0255,0.0264,0.0263,0.0278,0.0257,0.0268,0.028,0.0243,0.0251,0.0225,0.0201,0.0197,0.0194,0.0189,0.0167,0.019,0.0193,0.02,0.0142,0.0141,0.014,0.0155,0.0155,0.0155,0,0,0.0263,0.0266,0.0287,0.0294,0.0303,0.0297,0.0305,0.0301,0.03,0.0303,0.0275,0.0256,0.0241,0.0221,0.021,0.0222,0.0182,0.0218,0.0251,0.0197,0.0195,0.0193,0.0147,0.0141,0.0224,0.0224,0.0224,0,0.0269,0.0303,0.0292,0.0317,0.0332,0.0311,0.0341,0.0334,0.0328,0.033,0.0313,0.0277,0.0253,0.0244,0.0244,0.023,0.0193,0.0241,0.0201,0.0198,0.0196,0.0148,0.0141,0.0226,0.0226,0.0226,0.0225,0,0.0313,0.0341,0.0355,0.038,0.0387,0.0412,0.0405,0.041,0.0401,0.0388,0.0375,0.0331,0.0314,0.0296,0.0275,0.025,0.0228,0.0207,0.0193,0.0197,0.0147,0.0138,0.0229,0.0228,0.0228,0.0227,0,0,0.0329,0.0378,0.0385,0.0419,0.0431,0.0447,0.0462,0.0472,0.0491,0.0456,0.0463,0.0418,0.0387,0.0372,0.0334,0.0284,0.0227,0.0244,0.024,0.0201,0.0108,0.0089,0.0077,0.0194,0.0193,0.0192,0.008,0,0.0372,0.044,0.0446,0.051,0.0549,0.0541,0.0559,0.056,0.0547,0.0542,0.0481,0.0471,0.0419,0.0413,0.0351,0.0259,0.0206,0.026,0.0107,0.0103,0.0088,0.0067,0.0189,0.0073,0.0071,0.007,0.0069,0,0.042,0.0464,0.0537,0.06,0.0615,0.0644,0.0679,0.0696,0.0671,0.066,0.0622,0.0567,0.0499,0.0449,0.0291,0.0326,0.0228,0.0146,0.0139,0.0102,0.0068,0.0067,0.0052,0.0054,0.0055,0.0056,0.0057,0,0.0456,0.053,0.0596,0.0619,0.0674,0.0709,0.0737,0.0737,0.0769,0.0738,0.0742,0.064,0.0601,0.0456,0.0286,0.0287,0.0096,0.0077,-0.0034,-0.0036,-0.0004,-0.0001,-0.0037,-0.0037,-0.0036,-0.0036,-0.0036,0,0.051,0.0567,0.0628,0.0671,0.0758,0.0771,0.0853,0.086,0.0874,0.0908,0.0814,0.0799,0.0599,0.0464,0.0302,0.0105,0.0106,-0.0032,-0.0069,0.0017,0.0024,-0.0011,-0.0006,-0.004,-0.0039,-0.0038,-0.0038,0,0.0546,0.0585,0.0669,0.0746,0.0784,0.0847,0.0951,0.1005,0.1004,0.104,0.1036,0.0915,0.0735,0.0522,0.0277,0.0142,-0.0054,-0.0122,-0.001,-0.0039,-0.0152,-0.0144,-0.0252,-0.0254,-0.0255,-0.0256,-0.0257,0,0.0569,0.0619,0.0726,0.0788,0.0835,0.094,0.102,0.1071,0.1125,0.1108,0.1121,0.0968,0.0857,0.0504,0.0267,-0.0051,-0.0095,-0.0192,-0.0178,-0.015,-0.0176,-0.0165,-0.0155,-0.0259,-0.026,-0.026,-0.0261,0,0.0612,0.0648,0.0717,0.0843,0.0946,0.1065,0.1174,0.1225,0.1269,0.1266,0.1193,0.1005,0.0795,0.0509,0.0257,0.003,-0.0131,-0.0208,-0.0206,-0.0194,-0.016,-0.0182,-0.0171,-0.0265,-0.0265,-0.0264,-0.0264,0,0.0638,0.069,0.0778,0.0894,0.102,0.1144,0.1208,0.127,0.1324,0.1298,0.1266,0.1036,0.0901,0.0549,0.0316,0.0086,0.003,-0.0036,-0.0045,-0.0042,0.0044,0.0119,0.0065,0,0,0,0,0,0.0657,0.0727,0.0827,0.0952,0.1071,0.1154,0.1287,0.1337,0.1379,0.1344,0.131,0.1112,0.0757,0.0598,0.0367,0.0276,-0.0019,-0.0004,-0.0101,-0.0293,-0.0287,-0.0224,0,0,0,0,0,0,0.0678,0.0769,0.0825,0.0974,0.1065,0.1212,0.1306,0.1341,0.1322,0.1314,0.1132,0.1042,0.0698,0.0882,0.0354,0.0283,0.0189,-0.017,-0.0175,-0.0296,-0.0291,-0.0286,-0.022,0,0,0,0,0]}]]